TimeCDT,TemperatureF,Dew PointF,Humidity,Sea Level PressureIn,VisibilityMPH,Wind Direction,Wind SpeedMPH,Gust SpeedMPH,PrecipitationIn,Events,Conditions,WindDirDegrees,DateUTC
12:53 AM,70.0,66.0,87,29.99,10.0,NNE,5.8,-,N/A,,Clear,30,2013-07-11 05:53:00
1:53 AM,69.1,64.9,87,29.99,10.0,ENE,6.9,-,N/A,,Clear,60,2013-07-11 06:53:00
2:53 AM,66.9,64.0,90,29.99,10.0,NNE,6.9,-,N/A,,Clear,30,2013-07-11 07:53:00
3:53 AM,66.0,63.0,90,30.00,10.0,NNE,4.6,-,N/A,,Clear,30,2013-07-11 08:53:00
4:53 AM,64.9,63.0,93,30.01,10.0,NNE,4.6,-,N/A,,Clear,20,2013-07-11 09:53:00
5:53 AM,64.0,62.1,93,30.01,10.0,NE,5.8,-,N/A,,Clear,40,2013-07-11 10:53:00
6:53 AM,66.9,63.0,87,30.02,10.0,NNE,5.8,-,N/A,,Clear,30,2013-07-11 11:53:00
7:53 AM,69.1,63.0,81,30.03,10.0,NNE,5.8,-,N/A,,Clear,30,2013-07-11 12:53:00
8:53 AM,73.0,63.0,71,30.04,10.0,ENE,6.9,-,N/A,,Clear,60,2013-07-11 13:53:00
9:53 AM,75.9,64.0,67,30.04,10.0,ENE,8.1,-,N/A,,Clear,70,2013-07-11 14:53:00
10:53 AM,78.1,64.0,62,30.04,10.0,North,10.4,16.1,N/A,,Clear,10,2013-07-11 15:53:00
11:53 AM,79.0,64.0,60,30.05,10.0,ENE,8.1,24.2,N/A,,Clear,60,2013-07-11 16:53:00
12:53 PM,80.1,64.0,58,30.04,10.0,NNE,10.4,-,N/A,,Clear,30,2013-07-11 17:53:00
1:53 PM,81.0,62.1,52,30.04,10.0,ENE,4.6,-,N/A,,Clear,60,2013-07-11 18:53:00
2:53 PM,82.0,63.0,52,30.04,10.0,Variable,4.6,-,N/A,,Clear,0,2013-07-11 19:53:00
3:53 PM,81.0,61.0,50,30.03,10.0,Variable,6.9,-,N/A,,Clear,0,2013-07-11 20:53:00
4:53 PM,81.0,61.0,50,30.03,10.0,ENE,9.2,-,N/A,,Clear,60,2013-07-11 21:53:00
5:53 PM,80.1,61.0,52,30.01,10.0,NE,9.2,-,N/A,,Clear,50,2013-07-11 22:53:00
6:53 PM,79.0,60.1,52,30.00,10.0,ENE,9.2,-,N/A,,Clear,70,2013-07-11 23:53:00
7:53 PM,75.0,61.0,62,30.00,10.0,ENE,4.6,-,N/A,,Clear,60,2013-07-12 00:53:00
8:53 PM,71.1,61.0,70,30.00,10.0,ENE,4.6,-,N/A,,Clear,70,2013-07-12 01:53:00
9:53 PM,66.9,61.0,81,30.02,10.0,Calm,Calm,-,N/A,,Clear,0,2013-07-12 02:53:00
10:53 PM,64.9,60.1,84,30.03,10.0,Calm,Calm,-,N/A,,Clear,0,2013-07-12 03:53:00
11:53 PM,64.9,60.1,84,30.04,10.0,East,3.5,-,N/A,,Clear,90,2013-07-12 04:53:00